Temp
9 9 9 9 9 8 8 8 8 8 8 7 7 7 7 7 7 7 8 7 8 8 7 8 7 7 7 7 7 7 7 6 7 7 7 7 7 6 6 6 6 6 7
9 9 9 9 8 8 8 8 8 8 7 6 6 6 5 6 6 6 7 7 7 7 7 7 7 7 7 7 7 7 6 7 6 7 7 7 6 6 6 6 6 7 6
8 9 9 8 8 8 8 8 8 7 6 6 6 5 5 5 5 6 6 7 7 7 7 7 7 7 6 6 7 6 6 6 7 7 6 6 6 6 6 6 6 6 6
8 8 9 8 8 8 8 7 7 7 7 6 5 5 4 5 5 5 6 6 6 6 6 7 6 6 6 6 6 6 6 6 6 6 6 6 6 6 6 6 6 6 6
8 8 8 8 7 7 7 7 6 7 7 5 6 4 4 4 4 5 5 5 6 5 6 6 6 6 6 6 6 5 6 6 6 6 6 6 6 6 5 5 5 5 5
7 7 7 7 7 7 6 6 6 5 5 5 5 4 4 4 4 4 4 5 5 5 5 6 6 5 6 5 5 5 5 6 5 6 6 6 5 5 5 5 5 5 5
7 7 7 6 7 6 6 6 6 6 4 4 4 4 4 3 3 4 4 4 4 5 5 5 6 5 5 5 5 5 5 5 6 5 5 5 5 5 5 5 5 5 5
7 7 6 6 6 6 6 6 5 5 4 2 2 4 4 3 3 3 3 4 4 5 5 5 5 5 5 5 4 5 5 5 5 5 5 5 5 5 5 5 5 5 5
7 6 6 6 6 6 5 5 4 4 3 3 2 2 3 4 3 3 3 4 4 4 5 5 5 4 5 4 4 4 4 4 5 4 4 4 4 4 5 5 5 5 4
6 6 6 6 6 6 5 5 4 4 4 3 2 3 4 4 3 2 3 3 4 4 4 4 4 4 4 4 4 4 3 4 4 4 4 4 4 4 4 4 4 4 4
6 6 6 6 5 5 5 5 3 3 3 3 2 3 3 2 3 2 2 3 3 4 4 4 4 3 4 4 3 3 3 3 4 4 4 4 4 4 4 4 4 3 4
7 6 6 6 6 6 5 4 4 4 3 3 3 3 3 3 2 1 2 3 3 3 3 4 3 3 4 4 3 3 3 3 4 3 3 3 4 4 4 3 3 3 4
6 6 5 5 5 5 5 5 4 4 4 4 3 3 2 3 2 2 2 1 2 2 3 3 3 3 4 3 3 3 3 3 3 3 3 3 3 3 3 3 3 3 3
6 5 5 5 5 5 5 5 4 4 4 4 4 3 3 3 3 2 1 2 1 2 2 3 3 3 3 3 3 2 2 4 3 3 3 3 3 3 3 3 3 3 3
6 6 5 5 5 5 5 5 5 4 4 4 4 3 3 3 2 2 2 1 1 1 2 2 2 3 2 2 3 2 1 4 3 3 2 2 2 2 2 2 2 2 2
7 7 6 6 5 5 5 5 4 4 3 3 4 4 3 3 2 2 1 1 1 0 2 2 2 2 2 2 2 2 2 3 2 2 2 2 2 2 2 2 2 2 2
6 7 6 6 6 6 6 6 5 4 4 4 4 3 3 3 2 3 2 1 -1 0 1 1 2 1 2 2 2 2 2 2 2 2 2 1 1 1 1 2 2 2 2
6 6 7 6 6 6 6 6 5 5 4 4 4 3 3 3 1 2 1 1 0 -1 0 1 1 1 1 1 1 1 1 1 2 1 1 1 1 1 1 1 1 1 2
7 6 7 6 6 6 6 5 5 4 4 4 3 3 3 2 2 1 1 0 1 -0 0 1 1 1 1 1 1 0 0 0 1 1 1 1 1 1 1 1 1 2 2
7 7 7 6 6 6 4 3 3 2 2 3 3 4 3 2 2 1 1 0 0 -1 1 1 1 0 0 0 -0 -1 -0 0 -0 -0 0 1 1 1 0 1 1 1 1
7 7 7 6 6 5 5 3 2 2 3 3 3 2 2 2 2 0 -0 0 -0 -2 -1 -0 -0 -1 -1 -1 -1 -1 -0 -0 -0 -0 -0 -0 0 -0 1 1 0 0 0
7 7 6 7 6 5 4 4 3 2 1 2 1 1 2 1 -0 0 -0 -1 -0 -1 -3 -3 -2 -1 -1 -0 -0 -0 -0 -0 -0 -0 -0 -0 -1 -1 -1 -0 0 0 0
7 7 6 7 6 5 5 4 4 3 2 2 2 2 1 1 1 0 -1 -1 -1 -2 -3 -3 -1 -1 0 -1 -1 -0 -0 0 -1 -1 -0 -1 -1 -1 -1 -1 -1 -0 0
7 7 6 7 6 5 5 4 4 4 3 2 2 1 1 1 2 1 -1 -2 -1 -3 -3 -2 -1 -1 -0 -1 -1 -1 -1 -1 -1 -1 -1 -0 -1 -1 -1 -1 -0 -0 -0
7 7 6 7 6 6 6 5 4 3 3 2 1 1 1 1 1 0 -0 -2 -2 -2 -2 -2 -1 -1 -1 -1 -2 -2 -1 -1 -1 -1 -1 -1 -1 -1 -0 -1 -1 -0 -0
7 7 7 6 6 6 6 6 5 4 3 2 1 1 0 0 1 1 0 -1 -2 -2 -2 -2 -2 -2 -1 -1 -1 -1 -1 -1 -1 -1 -1 -0 -0 -0 -1 -1 -1 -1 -1
Height
3120 3123 3124 3123 3124 3125 3127 3128 3129 3131 3132 3132 3134 3136 3138 3139 3140 3141 3141 3142 3143 3146 3147 3149 3150 3152 3154 3156 3158 3160 3162 3162 3163 3164 3165 3166 3168 3170 3172 3173 3173 3174 3175
3119 3122 3122 3122 3122 3124 3127 3127 3128 3128 3129 3131 3132 3133 3136 3137 3139 3139 3140 3140 3142 3144 3147 3148 3151 3153 3154 3156 3158 3159 3161 3163 3164 3164 3166 3167 3168 3170 3172 3172 3173 3175 3176
3117 3120 3121 3120 3121 3122 3124 3124 3124 3125 3126 3127 3129 3131 3134 3136 3137 3138 3139 3140 3141 3144 3146 3148 3150 3153 3155 3157 3158 3159 3160 3162 3163 3165 3166 3167 3169 3170 3172 3173 3174 3174 3175
3116 3117 3120 3119 3119 3120 3122 3122 3123 3123 3125 3126 3128 3131 3132 3134 3135 3137 3138 3139 3140 3144 3146 3148 3151 3153 3154 3156 3158 3159 3159 3161 3163 3165 3166 3168 3169 3170 3172 3173 3174 3175 3176
3116 3115 3117 3116 3116 3117 3118 3119 3120 3121 3123 3125 3127 3127 3130 3131 3133 3135 3137 3138 3140 3143 3146 3149 3151 3153 3154 3156 3157 3158 3160 3163 3164 3165 3167 3168 3170 3171 3173 3173 3175 3175 3177
3113 3113 3114 3113 3112 3111 3113 3115 3116 3117 3119 3121 3123 3126 3127 3129 3131 3133 3135 3137 3139 3142 3146 3149 3151 3152 3154 3155 3157 3158 3161 3163 3163 3165 3167 3169 3170 3171 3172 3173 3174 3176 3177
3110 3108 3110 3110 3109 3108 3108 3109 3109 3110 3101 3109 3103 3115 3123 3127 3128 3131 3133 3135 3138 3141 3145 3148 3150 3152 3154 3156 3156 3159 3160 3162 3162 3164 3167 3168 3170 3172 3173 3174 3175 3176 3178
3106 3104 3104 3105 3105 3103 3104 3106 3106 3106 3097 3103 3102 3105 3119 3123 3125 3127 3130 3134 3136 3140 3143 3147 3150 3152 3154 3156 3157 3158 3160 3160 3161 3164 3166 3168 3170 3171 3172 3173 3175 3177 3179
3102 3099 3099 3100 3099 3098 3099 3101 3099 3100 3099 3101 3105 3099 3114 3118 3121 3125 3128 3130 3134 3138 3141 3145 3149 3152 3153 3155 3157 3158 3160 3160 3161 3164 3166 3167 3169 3171 3173 3175 3176 3178 3179
3097 3094 3092 3093 3093 3093 3094 3094 3093 3093 3092 3097 3094 3087 3107 3112 3113 3122 3126 3130 3133 3136 3140 3143 3147 3151 3153 3155 3157 3158 3159 3160 3161 3163 3166 3167 3168 3170 3173 3175 3177 3178 3180
3092 3089 3086 3085 3087 3089 3089 3092 3088 3092 3093 3097 3091 3095 3105 3111 3116 3117 3123 3128 3131 3134 3138 3142 3146 3149 3152 3154 3156 3157 3157 3159 3159 3164 3166 3167 3168 3170 3173 3175 3176 3178 3179
3087 3084 3082 3082 3083 3086 3086 3086 3084 3087 3090 3095 3092 3098 3103 3110 3114 3116 3120 3125 3129 3133 3136 3140 3144 3147 3151 3152 3154 3156 3157 3157 3162 3164 3165 3167 3169 3171 3174 3175 3176 3177 3178
3082 3079 3078 3078 3080 3080 3082 3083 3084 3085 3089 3092 3095 3098 3104 3107 3111 3111 3116 3118 3125 3130 3133 3137 3141 3146 3149 3152 3153 3155 3157 3156 3161 3163 3165 3168 3169 3171 3172 3174 3176 3177 3178
3078 3075 3074 3075 3076 3077 3078 3080 3081 3083 3086 3090 3092 3096 3100 3104 3107 3109 3115 3117 3121 3127 3131 3136 3139 3144 3148 3150 3152 3155 3155 3156 3160 3162 3165 3168 3169 3170 3172 3173 3175 3176 3177
3075 3073 3071 3072 3072 3073 3074 3075 3078 3080 3083 3086 3090 3092 3095 3099 3103 3107 3111 3112 3116 3123 3129 3133 3136 3142 3145 3148 3152 3153 3153 3156 3160 3162 3165 3167 3168 3168 3170 3172 3174 3175 3176
3072 3072 3071 3070 3071 3071 3071 3071 3073 3076 3079 3082 3085 3088 3092 3095 3099 3101 3103 3111 3113 3121 3127 3132 3136 3139 3143 3146 3150 3152 3153 3155 3159 3161 3163 3165 3166 3167 3169 3171 3173 3174 3175
3071 3068 3070 3069 3069 3068 3069 3069 3069 3071 3074 3077 3080 3083 3087 3090 3093 3098 3100 3104 3111 3120 3124 3129 3133 3137 3141 3145 3148 3150 3152 3153 3157 3159 3161 3163 3165 3166 3168 3169 3171 3173 3174
3069 3065 3066 3066 3066 3064 3063 3063 3064 3066 3068 3070 3073 3076 3079 3082 3087 3093 3098 3103 3107 3115 3120 3126 3131 3135 3139 3142 3145 3148 3151 3152 3154 3158 3160 3162 3163 3165 3167 3168 3169 3171 3173
3066 3064 3064 3064 3062 3060 3058 3056 3058 3059 3062 3064 3065 3068 3072 3075 3079 3085 3092 3100 3106 3113 3117 3121 3128 3133 3136 3140 3143 3147 3150 3151 3153 3155 3158 3160 3161 3163 3164 3165 3167 3169 3170
3064 3062 3061 3061 3058 3055 3050 3050 3052 3053 3056 3058 3059 3062 3067 3070 3075 3080 3085 3094 3101 3108 3115 3120 3124 3128 3133 3137 3140 3145 3147 3150 3152 3154 3155 3156 3159 3161 3162 3163 3165 3165 3166
3061 3059 3058 3056 3054 3051 3049 3048 3051 3053 3054 3056 3058 3059 3065 3069 3073 3079 3086 3092 3097 3102 3112 3117 3122 3125 3128 3133 3137 3141 3146 3148 3150 3152 3154 3155 3156 3156 3158 3161 3161 3162 3163
3058 3056 3055 3054 3051 3050 3049 3048 3050 3052 3054 3057 3061 3065 3069 3074 3079 3082 3085 3089 3093 3098 3103 3110 3116 3123 3128 3133 3137 3140 3142 3146 3147 3149 3151 3152 3153 3154 3154 3154 3158 3159 3159
3055 3053 3053 3052 3050 3049 3048 3048 3048 3050 3053 3057 3061 3065 3068 3073 3075 3075 3079 3085 3090 3097 3103 3111 3117 3122 3127 3131 3133 3137 3138 3140 3144 3146 3147 3148 3149 3150 3152 3152 3151 3150 3152
3052 3051 3050 3049 3048 3048 3048 3048 3047 3050 3053 3056 3059 3062 3068 3070 3071 3072 3077 3083 3088 3095 3103 3110 3115 3119 3123 3126 3129 3133 3136 3138 3138 3142 3143 3145 3145 3146 3147 3148 3147 3148 3147
3048 3049 3048 3047 3047 3046 3047 3047 3046 3047 3049 3051 3055 3060 3065 3068 3069 3072 3076 3082 3088 3095 3102 3107 3111 3115 3117 3123 3126 3130 3132 3133 3134 3137 3139 3140 3141 3142 3143 3144 3143 3143 3143
3044 3046 3046 3046 3045 3045 3047 3047 3047 3046 3047 3048 3052 3057 3061 3064 3068 3070 3074 3079 3085 3091 3097 3103 3107 3111 3115 3118 3121 3124 3127 3130 3132 3133 3133 3135 3136 3137 3137 3138 3138 3138 3137
Wind_Speed
10 7 11 10 15 18 19 15 14 14 12 13 12 9 7 8 7 6 7 9 11 11 11 12 11 9 10 9 9 11 11 10 9 10 12 11 10 8 6 8 7 7 6
12 8 9 10 14 16 18 15 15 15 17 15 11 9 10 10 8 6 5 9 9 12 11 10 9 9 10 11 12 12 12 12 11 11 9 8 9 8 8 10 9 8 9
16 12 10 11 13 16 19 18 17 19 20 17 14 12 13 11 9 6 4 6 8 10 12 10 10 9 11 14 14 14 14 12 10 8 9 9 10 10 10 10 11 10 11
17 13 7 10 10 16 23 23 21 21 22 19 15 14 15 13 11 8 5 5 10 12 12 11 10 11 13 15 14 15 15 13 11 10 11 10 11 12 12 12 12 12 12
18 16 14 13 15 19 29 27 25 24 25 22 21 19 17 17 13 10 6 6 12 13 11 9 11 12 13 14 14 14 12 10 9 11 11 11 12 12 12 13 13 14 13
15 16 15 15 19 22 28 32 28 27 28 27 25 22 19 16 14 12 8 8 13 14 12 7 10 12 13 13 14 13 11 10 10 10 11 11 12 13 15 15 15 14 14
14 17 16 17 20 22 24 30 33 33 27 34 34 29 21 19 15 14 10 9 14 16 14 10 12 13 14 15 15 12 12 11 10 11 11 12 13 13 14 14 14 13 13
19 20 22 19 19 24 24 27 34 35 49 26 31 24 24 21 18 15 17 11 14 16 15 13 13 14 16 16 15 13 11 10 9 10 12 13 13 14 14 15 14 13 12
23 25 25 22 22 22 26 25 32 32 28 28 32 44 29 25 22 17 18 18 16 18 16 15 15 16 16 17 15 12 12 9 10 12 13 14 14 14 13 13 13 12 12
24 25 27 26 23 21 22 21 24 26 26 31 23 32 28 24 28 22 22 18 21 18 16 16 17 17 17 16 15 14 12 12 10 11 12 14 15 14 13 12 12 13 12
23 24 23 21 17 18 19 16 16 12 8 6 17 22 21 16 19 21 19 23 23 19 18 18 19 18 18 18 17 18 17 14 12 12 13 13 14 14 14 13 13 13 11
22 23 19 16 16 15 17 11 12 11 12 12 17 27 30 20 13 21 22 22 20 21 19 20 20 19 19 20 20 17 15 15 11 14 13 13 13 14 13 12 12 12 11
19 20 18 15 15 18 16 14 13 10 15 16 12 13 22 23 21 19 24 31 26 23 23 23 22 21 20 18 18 17 15 14 11 12 13 13 14 13 13 13 12 11 10
18 16 18 17 16 18 18 16 17 16 13 16 18 19 23 24 23 21 26 28 30 26 25 24 24 22 20 19 19 16 17 12 13 14 13 13 13 13 13 13 12 11 10
16 13 12 15 17 17 19 22 19 17 18 18 22 22 24 23 26 31 27 27 37 30 24 26 25 24 22 21 18 19 18 12 14 12 13 14 15 15 14 13 12 9 8
17 11 9 9 11 14 17 19 21 22 21 21 23 27 28 31 29 35 44 37 33 30 28 27 27 25 23 22 20 18 18 11 13 14 14 14 15 15 13 11 10 8 8
18 16 10 10 11 14 16 18 20 23 27 29 28 30 32 32 33 26 35 40 34 31 31 30 28 26 25 23 20 20 16 14 13 13 13 15 14 13 12 11 10 9 7
18 19 13 14 15 19 20 21 22 23 24 26 29 30 32 34 31 29 33 37 33 37 36 32 28 28 26 23 21 18 16 15 11 11 13 14 13 12 12 12 10 9 10
18 18 17 16 19 23 26 26 26 24 24 24 29 29 28 28 41 44 43 34 31 37 39 34 32 30 26 24 21 18 16 13 11 11 14 14 14 13 12 11 10 11 11
19 18 18 17 22 24 22 18 13 16 16 15 20 21 28 23 40 47 39 42 42 40 36 33 34 32 29 25 20 18 13 14 14 13 13 14 14 13 12 12 11 11 12
19 18 15 18 20 14 3 6 8 7 8 4 7 19 29 37 46 42 40 40 45 45 37 35 36 31 30 23 14 20 17 16 16 16 16 14 12 12 13 12 14 13 13
18 16 12 16 15 10 6 8 7 8 12 8 20 21 14 20 23 34 28 49 45 42 43 44 42 32 24 29 30 20 22 20 19 18 16 15 15 15 16 18 15 15 12
15 14 12 12 13 9 6 7 8 11 15 16 19 19 17 20 16 17 30 48 45 41 40 40 34 33 26 27 24 23 24 23 19 19 18 19 19 19 16 17 18 17 19
14 13 12 11 10 10 8 3 7 8 8 12 13 17 16 8 5 9 30 42 47 44 39 41 34 34 33 28 25 24 24 24 23 21 20 21 18 20 21 17 18 19 22
15 13 13 10 7 8 6 5 6 8 9 9 12 22 15 11 9 16 22 38 42 42 42 40 35 36 32 27 26 28 27 24 25 21 18 22 21 17 24 23 23 23 22
16 13 13 11 7 7 5 4 4 6 9 11 15 17 15 14 14 15 21 29 36 38 38 38 37 32 29 31 30 30 30 28 25 24 24 21 20 22 25 24 24 24 28
Wind_Direction
315 329 295 258 237 215 212 215 229 214 217 212 208 233 222 205 185 182 192 191 196 203 196 186 181 175 166 166 165 163 166 163 163 161 171 168 152 146 112 113 119 131 136
304 322 307 272 238 226 215 227 222 231 225 213 223 231 197 196 200 180 201 183 192 195 195 187 186 177 170 169 165 160 156 165 166 167 155 149 137 137 124 120 120 130 131
306 303 302 282 244 235 220 235 238 234 221 212 225 212 198 195 198 194 180 188 170 191 186 174 170 167 160 162 164 163 166 170 169 151 139 142 143 136 134 136 135 134 125
298 302 275 271 243 240 232 246 245 238 231 228 222 207 200 200 200 189 172 163 158 178 175 167 165 162 162 165 166 170 170 170 159 146 143 147 149 148 151 149 139 133 128
292 286 275 262 259 258 241 249 251 246 239 230 226 200 208 200 204 196 171 171 165 182 188 177 165 168 170 171 170 173 173 166 161 150 152 156 157 162 156 142 138 129 131
282 277 277 272 255 250 247 250 250 244 235 229 220 208 207 203 223 214 182 180 175 188 207 197 176 176 176 171 176 177 171 165 160 160 157 157 162 161 152 147 136 139 137
287 279 281 284 276 259 253 247 244 242 213 213 200 196 205 207 211 209 191 195 188 187 200 203 194 182 176 178 183 177 175 173 174 155 157 166 165 159 149 143 142 140 137
284 280 286 276 282 263 260 255 253 255 273 229 208 203 202 211 196 200 189 208 193 189 194 200 197 188 182 182 181 181 177 181 173 155 160 162 161 157 155 147 145 145 145
283 284 284 281 278 269 265 263 257 261 276 251 255 243 199 209 198 200 202 206 192 192 190 191 194 193 187 182 183 179 180 183 174 163 162 163 161 160 155 152 150 151 149
283 281 285 281 272 264 263 269 263 272 260 250 240 173 189 213 198 199 202 197 187 190 189 190 190 188 191 183 181 173 171 190 172 168 163 166 161 157 160 161 162 157 154
286 283 289 289 262 258 263 271 256 215 224 217 176 173 190 192 224 203 197 209 215 191 190 193 189 189 188 181 175 172 178 184 186 163 172 169 164 164 171 171 168 162 162
293 284 285 282 267 251 257 265 236 223 234 247 256 189 198 219 243 205 194 187 191 192 189 188 190 187 190 183 178 182 181 186 174 175 171 175 177 173 179 175 174 170 171
311 285 275 274 267 267 261 251 242 248 239 245 234 228 227 227 246 251 226 194 190 196 191 188 188 186 189 187 181 185 189 197 166 177 181 183 182 182 179 184 186 180 180
317 297 270 271 268 266 265 251 245 240 245 237 235 232 231 239 247 238 241 204 188 194 191 189 185 184 185 186 188 180 176 196 166 183 187 189 191 187 191 192 193 193 190
314 318 294 274 269 272 267 263 246 240 241 242 239 235 242 247 244 247 254 218 196 189 190 194 184 187 185 188 185 180 178 191 171 186 194 196 197 196 197 199 201 199 202
320 325 320 297 278 273 271 265 251 242 238 238 240 239 237 241 249 242 249 207 186 180 192 194 188 188 186 187 186 183 194 203 180 190 199 204 202 200 200 203 209 217 225
308 315 318 308 295 280 274 265 253 247 243 239 240 238 236 245 247 227 214 195 184 185 190 192 190 186 187 183 184 190 194 202 192 191 202 207 206 202 201 205 212 224 234
298 307 321 308 296 289 283 271 261 252 244 239 236 235 239 243 229 202 208 213 211 180 191 192 190 186 185 189 188 192 195 194 208 193 203 210 209 210 211 218 227 240 250
298 295 305 302 298 295 286 271 264 257 250 246 238 233 235 233 227 225 210 211 177 190 194 191 186 189 190 189 188 192 197 193 212 212 207 214 217 221 226 234 243 254 266
291 295 300 305 306 306 289 271 255 239 237 237 223 217 219 209 208 195 204 183 185 191 195 190 191 190 191 188 184 195 200 206 212 221 234 228 220 223 230 245 251 261 267
289 300 303 308 316 312 279 228 232 234 212 226 212 195 208 213 202 196 186 190 193 184 190 194 196 195 187 181 200 219 217 219 217 225 230 234 242 249 252 238 253 267 271
286 297 300 309 315 311 275 262 216 232 203 184 179 187 249 247 221 209 229 206 200 185 191 197 200 190 194 222 239 208 214 216 219 223 225 226 235 240 252 267 262 268 275
280 288 288 304 309 301 286 282 231 204 194 205 209 220 225 220 256 230 214 210 200 193 193 199 203 199 216 228 209 218 211 216 217 218 227 234 240 246 256 262 269 283 282
267 278 279 292 301 292 292 280 265 248 244 207 199 203 209 210 218 211 202 205 202 195 201 201 211 229 224 214 208 219 218 222 216 220 232 239 243 254 253 261 265 279 285
257 268 268 275 283 286 296 267 272 270 257 206 197 205 228 208 201 202 199 207 205 205 202 212 217 213 224 213 214 214 223 232 244 247 251 259 251 251 254 265 267 271 279
254 259 260 262 258 265 272 272 279 273 269 249 213 216 229 227 229 219 203 204 204 210 209 216 210 215 223 227 221 218 223 236 240 249 254 258 268 265 266 264 274 277 280